Regional Weather Roundup
Issued by NWS New Orleans/Baton Rouge, LA

Current Version | Previous Version | Text Only | Print | Product List | Glossary On
Versions: 1 2 3 4 5 6 7 8 9 10 11 12 13 14 15 16 17 18 19 20 21 22 23 24 25 26 27
000
ASUS44 KLIX 282011
RWRLIX
NEW ORLEANS REGIONAL WEATHER ROUNDUP
NATIONAL WEATHER SERVICE NEW ORLEANS LA
300 PM CDT WED SEP 28 2016

NOTE: "FAIR" INDICATES FEW OR NO CLOUDS BELOW 12,000 FEET WITH NO
      SIGNIFICANT WEATHER AND/OR OBSTRUCTIONS TO VISIBILITY.
      SKY/WX - SKY CONDITION AND SIGNIFICANT WEATHER.
      TMP - AIR TEMPERATURE.     DP    - DEWPOINT TEMPERATURE.
      RH  - RELATIVE HUMIDITY.   PRES  - PRESSURE.
      HI  - HEAT INDEX.          WCI   - WIND CHILL INDEX.

*  THESE STATIONS ARE NOT NWS OR FAA STATIONS AND ARE NOT UNDER
   NWS QUALITY CONTROL.

LAZ038-040-048-061>063-065>067-069-282100-
SOUTHEAST LOUISIANA

CITY           SKY/WX    TMP DP  RH WIND       PRES   REMARKS
N.O. AUDUBON     N/A     90  72  55 MISG        N/A  HX  96
N.O. INTL ARPT MOSUNNY   89  64  43 W3        29.97F
N.O. LAKEFRONT SUNNY     85  61  44 NW8       29.98F
N.O. DOWNTOWN*   N/A     87  63  44 VRB7      29.98F
RESERVE*         N/A     89  65  44 CALM      29.97F
SLIDELL        SUNNY     88  64  44 VRB6      29.95F
BATON ROUGE    SUNNY     86  64  47 VRB7      29.98F
BOOTHVILLE     MOSUNNY   86  72  62 VRB5      29.98S
BELLE CHASSE   MOSUNNY   89  67  47 CALM      29.96F
BOGALUSA*        N/A     88  62  41 W5        29.98F
GALLIANO*      PTCLDY    90  56  31 W7        29.97S
NEW ROADS*       N/A     85  65  50 MISG      29.99F
GONZALES*        N/A     86  65  49 W3        29.97F
HAMMOND*       SUNNY     90  61  37 NW6       29.97F
HOUMA*         MOSUNNY   88  72  58 W5        29.97F
PORT FOURCHON* CLEAR     86  70  58 NW7       29.98S

$$

MSZ070-080>082-282100-
SOUTHERN MISSISSIPPI

CITY           SKY/WX    TMP DP  RH WIND       PRES   REMARKS
MCCOMB         SUNNY     84  63  49 NW7       29.98F
GULFPORT       SUNNY     89  64  43 NW10      29.95F
BILOXI         SUNNY     87  69  54 S9        29.95F
PASCAGOULA     MOSUNNY   88  71  57 VRB6      29.94F
STENNIS ARPT*  SUNNY     86  57  37 W5        29.96F

$$

COASTAL OBSERVATIONS
LAKE AND NEARSHORE STATIONS

STATION/POSITION TIME  TEMP    WIND        PRES    WAVE
                       AIR SEA DIR/SP/G            HT/PER
                 (UTC) (F)     (DEG/KT/KT) (MB)    (FT/S)
PASCAGOULA       1900   87     230/  7/ 11 1014.2
WAVELAND YACHT   1900   85 84  290/  5/ 12 1015.1
GRAND ISLE       1900   85 87  330/  3/  6 1015.5
SOUTHWEST PASS   1900          310/ 11/ 14   N/A
NEW CANAL        1900   82 86  340/  4/  6 1014.7
SHELL BEACH      1900   83 88  350/  9/ 11 1015.1

OFFSHORE STATIONS

STATION/POSITION TIME  TEMP    WIND        PRES    WAVE
                       AIR SEA DIR/SP/G            HT/PER
                 (UTC) (F)     (DEG/KT/KT) (MB)    (FT/S)
64 S DAUPHIN ISL 1900   83 86  260/  6/  8 1014.4

$$





USA.gov is the U.S. government's official web portal to all federal, state and local government web resources and services.